Time,TemperatureF,DewpointF,PressureIn,WindDirection,WindDirectionDegrees,WindSpeedMPH,WindSpeedGustMPH,Humidity,HourlyPrecipIn,Conditions,Clouds,dailyrainin,SoftwareType,DateUTC
2013-02-09 00:01:00,37.0,34.0,-100.00,SW,216,5.0,9.0,89,-99.99,,,-99.99,,2013-02-09 08:01:00,
2013-02-09 00:11:00,36.0,34.0,-100.00,SSW,206,5.0,8.0,91,-99.99,,,-99.99,,2013-02-09 08:11:00,
2013-02-09 00:21:00,36.0,34.0,-100.00,SSW,210,8.0,12.0,92,-99.99,,,-99.99,,2013-02-09 08:21:00,
2013-02-09 00:31:00,36.0,33.0,-100.00,WSW,240,7.0,11.0,90,-99.99,,,-99.99,,2013-02-09 08:31:00,
2013-02-09 00:41:00,36.0,33.0,-100.00,WSW,244,5.0,7.0,90,-99.99,,,-99.99,,2013-02-09 08:41:00,
2013-02-09 00:52:00,36.0,33.0,-100.00,West,267,2.0,5.0,90,-99.99,,,-99.99,,2013-02-09 08:52:00,
2013-02-09 01:02:00,36.0,33.0,-100.00,WSW,256,2.0,3.0,89,-99.99,,,-99.99,,2013-02-09 09:02:00,
2013-02-09 01:11:00,36.0,33.0,-100.00,SSW,196,2.0,3.0,89,-99.99,,,-99.99,,2013-02-09 09:11:00,
2013-02-09 01:21:00,36.0,33.0,-100.00,South,189,2.0,3.0,90,-99.99,,,-99.99,,2013-02-09 09:21:00,
2013-02-09 01:31:00,36.0,33.0,-100.00,South,187,2.0,3.0,90,-99.99,,,-99.99,,2013-02-09 09:31:00,
2013-02-09 01:41:00,36.0,33.0,-100.00,SW,231,2.0,3.0,90,-99.99,,,-99.99,,2013-02-09 09:41:00,
2013-02-09 01:51:00,36.0,33.0,-100.00,West,267,2.0,2.0,90,-99.99,,,-99.99,,2013-02-09 09:51:00,
2013-02-09 02:01:00,36.0,33.0,-100.00,WSW,256,1.0,2.0,90,-99.99,,,-99.99,,2013-02-09 10:01:00,
2013-02-09 02:11:00,36.0,33.0,-100.00,WNW,283,1.0,1.0,90,-99.99,,,-99.99,,2013-02-09 10:11:00,
2013-02-09 02:21:00,35.0,32.0,-100.00,NNE,13,1.0,3.0,90,-99.99,,,-99.99,,2013-02-09 10:21:00,
2013-02-09 02:31:00,35.0,33.0,-100.00,NE,39,2.0,4.0,91,-99.99,,,-99.99,,2013-02-09 10:31:00,
2013-02-09 02:41:00,34.0,32.0,-100.00,NNE,12,1.0,2.0,92,-99.99,,,-99.99,,2013-02-09 10:41:00,
2013-02-09 02:51:00,34.0,32.0,-100.00,NW,320,1.0,2.0,92,-99.99,,,-99.99,,2013-02-09 10:51:00,
2013-02-09 03:01:00,34.0,32.0,-100.00,SSW,208,1.0,2.0,92,-99.99,,,-99.99,,2013-02-09 11:01:00,
2013-02-09 03:11:00,34.0,32.0,-100.00,WNW,299,0.0,1.0,92,-99.99,,,-99.99,,2013-02-09 11:11:00,
2013-02-09 03:21:00,35.0,33.0,-100.00,SSE,162,0.0,1.0,92,-99.99,,,-99.99,,2013-02-09 11:21:00,
2013-02-09 03:31:00,34.0,32.0,-100.00,NE,47,1.0,3.0,92,-99.99,,,-99.99,,2013-02-09 11:31:00,
2013-02-09 03:41:00,34.0,32.0,-100.00,ENE,71,1.0,3.0,92,-99.99,,,-99.99,,2013-02-09 11:41:00,
2013-02-09 03:52:00,34.0,32.0,-100.00,NNW,329,0.0,2.0,93,-99.99,,,-99.99,,2013-02-09 11:52:00,
2013-02-09 04:02:00,34.0,32.0,-100.00,NNW,329,0.0,2.0,93,-99.99,,,-99.99,,2013-02-09 12:02:00,
2013-02-09 04:11:00,34.0,32.0,-100.00,NW,315,0.0,1.0,93,-99.99,,,-99.99,,2013-02-09 12:11:00,
2013-02-09 04:21:00,34.0,32.0,-100.00,NNE,27,3.0,4.0,93,-99.99,,,-99.99,,2013-02-09 12:21:00,
2013-02-09 04:32:00,34.0,32.0,-100.00,NNW,337,1.0,2.0,93,-99.99,,,-99.99,,2013-02-09 12:32:00,
2013-02-09 04:42:00,34.0,32.0,-100.00,NNW,344,1.0,2.0,93,-99.99,,,-99.99,,2013-02-09 12:42:00,
2013-02-09 04:52:00,34.0,32.0,-100.00,NNW,347,2.0,6.0,92,-99.99,,,-99.99,,2013-02-09 12:52:00,
2013-02-09 05:02:00,35.0,32.0,-100.00,ESE,119,3.0,6.0,89,-99.99,,,-99.99,,2013-02-09 13:02:00,
2013-02-09 05:11:00,34.0,31.0,-100.00,ENE,76,2.0,3.0,90,-99.99,,,-99.99,,2013-02-09 13:11:00,
2013-02-09 05:21:00,34.0,32.0,-100.00,NE,45,3.0,4.0,91,-99.99,,,-99.99,,2013-02-09 13:21:00,
2013-02-09 05:31:00,34.0,32.0,-100.00,North,6,2.0,3.0,91,-99.99,,,-99.99,,2013-02-09 13:31:00,
2013-02-09 05:42:00,34.0,32.0,-100.00,NE,37,2.0,4.0,91,-99.99,,,-99.99,,2013-02-09 13:42:00,
2013-02-09 05:51:00,33.0,30.0,-100.00,ENE,65,1.0,4.0,90,-99.99,,,-99.99,,2013-02-09 13:51:00,
2013-02-09 06:01:00,33.0,31.0,-100.00,NNW,331,1.0,2.0,91,-99.99,,,-99.99,,2013-02-09 14:01:00,
2013-02-09 06:11:00,33.0,31.0,-100.00,WNW,286,1.0,2.0,91,-99.99,,,-99.99,,2013-02-09 14:11:00,
2013-02-09 06:21:00,34.0,32.0,-100.00,NNW,348,1.0,3.0,91,-99.99,,,-99.99,,2013-02-09 14:21:00,
2013-02-09 06:31:00,33.0,31.0,-100.00,NE,51,3.0,4.0,91,-99.99,,,-99.99,,2013-02-09 14:31:00,
2013-02-09 06:41:00,33.0,31.0,-100.00,NNE,30,2.0,3.0,92,-99.99,,,-99.99,,2013-02-09 14:41:00,
2013-02-09 06:52:00,33.0,31.0,-100.00,ESE,107,1.0,3.0,92,-99.99,,,-99.99,,2013-02-09 14:52:00,
2013-02-09 07:01:00,33.0,31.0,-100.00,North,9,2.0,4.0,92,-99.99,,,-99.99,,2013-02-09 15:01:00,
2013-02-09 07:11:00,33.0,31.0,-100.00,NNW,348,2.0,4.0,92,-99.99,,,-99.99,,2013-02-09 15:11:00,
2013-02-09 07:21:00,33.0,31.0,-100.00,North,6,1.0,2.0,92,-99.99,,,-99.99,,2013-02-09 15:21:00,
2013-02-09 07:31:00,33.0,31.0,-100.00,NE,55,1.0,2.0,92,-99.99,,,-99.99,,2013-02-09 15:31:00,
2013-02-09 07:41:00,32.0,30.0,-100.00,ENE,62,2.0,3.0,92,-99.99,,,-99.99,,2013-02-09 15:41:00,
2013-02-09 07:51:00,32.0,30.0,-100.00,North,5,1.0,2.0,92,-99.99,,,-99.99,,2013-02-09 15:51:00,
2013-02-09 08:01:00,33.0,31.0,-100.00,NNE,29,2.0,3.0,93,-99.99,,,-99.99,,2013-02-09 16:01:00,
2013-02-09 08:11:00,34.0,32.0,-100.00,ENE,63,2.0,2.0,92,-99.99,,,-99.99,,2013-02-09 16:11:00,
2013-02-09 08:21:00,35.0,32.0,-100.00,East,99,2.0,3.0,90,-99.99,,,-99.99,,2013-02-09 16:21:00,
2013-02-09 08:31:00,37.0,34.0,-100.00,North,7,1.0,2.0,88,-99.99,,,-99.99,,2013-02-09 16:31:00,
2013-02-09 08:41:00,38.0,34.0,-100.00,ENE,62,1.0,2.0,87,-99.99,,,-99.99,,2013-02-09 16:41:00,
2013-02-09 08:51:00,40.0,34.0,-100.00,SSW,207,3.0,6.0,80,-99.99,,,-99.99,,2013-02-09 16:51:00,
2013-02-09 09:01:00,40.0,33.0,-100.00,SSW,201,5.0,8.0,77,-99.99,,,-99.99,,2013-02-09 17:01:00,
2013-02-09 09:11:00,40.0,34.0,-100.00,SSW,201,5.0,7.0,78,-99.99,,,-99.99,,2013-02-09 17:11:00,
2013-02-09 09:21:00,40.0,34.0,-100.00,SSW,193,5.0,8.0,78,-99.99,,,-99.99,,2013-02-09 17:21:00,
2013-02-09 09:31:00,41.0,34.0,-100.00,South,182,5.0,9.0,77,-99.99,,,-99.99,,2013-02-09 17:31:00,
2013-02-09 09:41:00,40.0,32.0,-100.00,South,186,7.0,11.0,74,-99.99,,,-99.99,,2013-02-09 17:41:00,
2013-02-09 09:52:00,41.0,33.0,-100.00,SSW,192,6.0,10.0,74,-99.99,,,-99.99,,2013-02-09 17:52:00,
2013-02-09 10:01:00,41.0,33.0,-100.00,SSW,207,6.0,9.0,73,-99.99,,,-99.99,,2013-02-09 18:01:00,
2013-02-09 10:11:00,41.0,33.0,-100.00,SSW,207,6.0,9.0,73,-99.99,,,-99.99,,2013-02-09 18:11:00,
2013-02-09 10:23:00,42.0,32.0,-100.00,WSW,242,8.0,11.0,68,-99.99,,,-99.99,,2013-02-09 18:23:00,
2013-02-09 10:31:00,41.0,32.0,-100.00,SW,232,6.0,10.0,70,-99.99,,,-99.99,,2013-02-09 18:31:00,
2013-02-09 10:41:00,42.0,33.0,-100.00,SW,235,8.0,14.0,69,-99.99,,,-99.99,,2013-02-09 18:41:00,
2013-02-09 10:51:00,41.0,32.0,-100.00,West,278,6.0,12.0,69,-99.99,,,-99.99,,2013-02-09 18:51:00,
2013-02-09 11:01:00,41.0,32.0,-100.00,West,274,6.0,10.0,70,-99.99,,,-99.99,,2013-02-09 19:01:00,
2013-02-09 11:11:00,41.0,32.0,-100.00,WSW,253,6.0,12.0,71,-99.99,,,-99.99,,2013-02-09 19:11:00,
2013-02-09 11:22:00,41.0,32.0,-100.00,WSW,240,7.0,11.0,71,-99.99,,,-99.99,,2013-02-09 19:22:00,
2013-02-09 11:31:00,42.0,34.0,-100.00,SW,224,5.0,9.0,72,-99.99,,,-99.99,,2013-02-09 19:31:00,
2013-02-09 11:41:00,43.0,33.0,-100.00,SSW,208,7.0,12.0,68,-99.99,,,-99.99,,2013-02-09 19:41:00,
2013-02-09 11:52:00,44.0,33.0,-100.00,SW,224,8.0,13.0,64,-99.99,,,-99.99,,2013-02-09 19:52:00,
2013-02-09 12:01:00,43.0,32.0,-100.00,SW,225,7.0,15.0,66,-99.99,,,-99.99,,2013-02-09 20:01:00,
2013-02-09 12:11:00,43.0,33.0,-100.00,WSW,238,8.0,11.0,68,-99.99,,,-99.99,,2013-02-09 20:11:00,
2013-02-09 12:21:00,44.0,34.0,-100.00,SW,231,5.0,9.0,68,-99.99,,,-99.99,,2013-02-09 20:21:00,
2013-02-09 12:31:00,44.0,33.0,-100.00,WSW,247,4.0,9.0,65,-99.99,,,-99.99,,2013-02-09 20:31:00,
2013-02-09 12:41:00,43.0,32.0,-100.00,SW,221,4.0,7.0,64,-99.99,,,-99.99,,2013-02-09 20:41:00,
2013-02-09 12:52:00,44.0,32.0,-100.00,WSW,248,6.0,13.0,62,-99.99,,,-99.99,,2013-02-09 20:52:00,
2013-02-09 13:01:00,45.0,32.0,-100.00,WSW,246,9.0,16.0,61,-99.99,,,-99.99,,2013-02-09 21:01:00,
2013-02-09 13:11:00,44.0,32.0,-100.00,SW,222,9.0,17.0,62,-99.99,,,-99.99,,2013-02-09 21:11:00,
2013-02-09 13:21:00,45.0,31.0,-100.00,SSW,200,5.0,9.0,58,-99.99,,,-99.99,,2013-02-09 21:21:00,
2013-02-09 13:31:00,45.0,31.0,-100.00,SSW,200,5.0,9.0,58,-99.99,,,-99.99,,2013-02-09 21:31:00,
2013-02-09 13:41:00,45.0,32.0,-100.00,West,264,6.0,14.0,59,-99.99,,,-99.99,,2013-02-09 21:41:00,
2013-02-09 13:52:00,45.0,32.0,-100.00,SW,234,8.0,12.0,60,-99.99,,,-99.99,,2013-02-09 21:52:00,
2013-02-09 14:01:00,45.0,32.0,-100.00,SW,234,8.0,12.0,60,-99.99,,,-99.99,,2013-02-09 22:01:00,
2013-02-09 14:11:00,45.0,32.0,-100.00,SW,231,9.0,15.0,61,-99.99,,,-99.99,,2013-02-09 22:11:00,
2013-02-09 14:21:00,44.0,32.0,-100.00,WSW,250,7.0,13.0,62,-99.99,,,-99.99,,2013-02-09 22:21:00,
2013-02-09 14:31:00,45.0,32.0,-100.00,WSW,239,8.0,15.0,60,-99.99,,,-99.99,,2013-02-09 22:31:00,
2013-02-09 14:41:00,46.0,33.0,-100.00,SW,222,10.0,15.0,61,-99.99,,,-99.99,,2013-02-09 22:41:00,
2013-02-09 14:51:00,45.0,32.0,-100.00,SW,230,11.0,17.0,61,-99.99,,,-99.99,,2013-02-09 22:51:00,
2013-02-09 15:01:00,44.0,33.0,-100.00,SW,217,10.0,14.0,66,-99.99,,,-99.99,,2013-02-09 23:01:00,
2013-02-09 15:11:00,44.0,34.0,-100.00,SW,223,8.0,11.0,68,-99.99,,,-99.99,,2013-02-09 23:11:00,
2013-02-09 15:21:00,44.0,33.0,-100.00,SW,224,8.0,14.0,66,-99.99,,,-99.99,,2013-02-09 23:21:00,
2013-02-09 15:31:00,44.0,35.0,-100.00,WSW,240,8.0,12.0,70,-99.99,,,-99.99,,2013-02-09 23:31:00,
2013-02-09 15:41:00,44.0,36.0,-100.00,SW,231,10.0,15.0,72,-99.99,,,-99.99,,2013-02-09 23:41:00,
2013-02-09 15:52:00,44.0,36.0,-100.00,SW,228,7.0,12.0,72,-99.99,,,-99.99,,2013-02-09 23:52:00,
2013-02-09 16:02:00,44.0,35.0,-100.00,WSW,252,9.0,14.0,70,-99.99,,,-99.99,,2013-02-10 00:02:00,
2013-02-09 16:11:00,44.0,34.0,-100.00,WSW,246,10.0,14.0,69,-99.99,,,-99.99,,2013-02-10 00:11:00,
2013-02-09 16:21:00,45.0,35.0,-100.00,WSW,247,9.0,14.0,68,-99.99,,,-99.99,,2013-02-10 00:21:00,
2013-02-09 16:31:00,45.0,34.0,-100.00,WSW,240,10.0,15.0,65,-99.99,,,-99.99,,2013-02-10 00:31:00,
2013-02-09 16:41:00,44.0,33.0,-100.00,WSW,237,10.0,13.0,65,-99.99,,,-99.99,,2013-02-10 00:41:00,
2013-02-09 16:51:00,44.0,33.0,-100.00,WSW,237,8.0,13.0,66,-99.99,,,-99.99,,2013-02-10 00:51:00,
2013-02-09 17:01:00,45.0,34.0,-100.00,WSW,245,8.0,13.0,65,-99.99,,,-99.99,,2013-02-10 01:01:00,
2013-02-09 17:11:00,44.0,33.0,-100.00,WSW,250,9.0,14.0,66,-99.99,,,-99.99,,2013-02-10 01:11:00,
2013-02-09 17:21:00,44.0,33.0,-100.00,WSW,248,7.0,12.0,64,-99.99,,,-99.99,,2013-02-10 01:21:00,
2013-02-09 17:31:00,44.0,31.0,-100.00,WSW,252,7.0,11.0,60,-99.99,,,-99.99,,2013-02-10 01:31:00,
2013-02-09 17:41:00,44.0,31.0,-100.00,WSW,252,7.0,11.0,60,-99.99,,,-99.99,,2013-02-10 01:41:00,
2013-02-09 17:51:00,43.0,29.0,-100.00,WSW,248,6.0,10.0,58,-99.99,,,-99.99,,2013-02-10 01:51:00,
2013-02-09 18:01:00,43.0,28.0,-100.00,WSW,251,7.0,12.0,56,-99.99,,,-99.99,,2013-02-10 02:01:00,
2013-02-09 18:11:00,43.0,30.0,-100.00,West,259,6.0,9.0,60,-99.99,,,-99.99,,2013-02-10 02:11:00,
2013-02-09 18:22:00,42.0,30.0,-100.00,West,264,5.0,8.0,62,-99.99,,,-99.99,,2013-02-10 02:22:00,
2013-02-09 18:31:00,42.0,31.0,-100.00,West,269,3.0,6.0,65,-99.99,,,-99.99,,2013-02-10 02:31:00,
2013-02-09 18:41:00,41.0,31.0,-100.00,WSW,249,3.0,6.0,66,-99.99,,,-99.99,,2013-02-10 02:41:00,
2013-02-09 18:52:00,41.0,31.0,-100.00,SSW,192,2.0,4.0,67,-99.99,,,-99.99,,2013-02-10 02:52:00,
2013-02-09 19:01:00,40.0,30.0,-100.00,SW,215,2.0,4.0,68,-99.99,,,-99.99,,2013-02-10 03:01:00,
2013-02-09 19:11:00,40.0,31.0,-100.00,SSW,207,2.0,3.0,70,-99.99,,,-99.99,,2013-02-10 03:11:00,
2013-02-09 19:21:00,39.0,30.0,-100.00,SW,225,1.0,2.0,71,-99.99,,,-99.99,,2013-02-10 03:21:00,
2013-02-09 19:31:00,39.0,31.0,-100.00,West,277,1.0,1.0,73,-99.99,,,-99.99,,2013-02-10 03:31:00,
2013-02-09 19:41:00,39.0,31.0,-100.00,SW,234,2.0,3.0,74,-99.99,,,-99.99,,2013-02-10 03:41:00,
2013-02-09 19:51:00,40.0,32.0,-100.00,SW,231,1.0,2.0,74,-99.99,,,-99.99,,2013-02-10 03:51:00,
2013-02-09 20:01:00,40.0,33.0,-100.00,West,265,1.0,2.0,75,-99.99,,,-99.99,,2013-02-10 04:01:00,
2013-02-09 20:11:00,40.0,33.0,-100.00,SW,233,1.0,2.0,76,-99.99,,,-99.99,,2013-02-10 04:11:00,
2013-02-09 20:21:00,39.0,33.0,-100.00,North,358,1.0,2.0,79,-99.99,,,-99.99,,2013-02-10 04:21:00,
2013-02-09 20:31:00,38.0,32.0,-100.00,NE,39,3.0,4.0,80,-99.99,,,-99.99,,2013-02-10 04:31:00,
2013-02-09 20:41:00,37.0,32.0,-100.00,North,8,2.0,3.0,82,-99.99,,,-99.99,,2013-02-10 04:41:00,
2013-02-09 20:51:00,37.0,33.0,-100.00,North,358,1.0,2.0,85,-99.99,,,-99.99,,2013-02-10 04:51:00,
2013-02-09 21:01:00,37.0,33.0,-100.00,ENE,74,0.0,2.0,84,-99.99,,,-99.99,,2013-02-10 05:01:00,
2013-02-09 21:11:00,37.0,33.0,-100.00,NNE,23,2.0,3.0,84,-99.99,,,-99.99,,2013-02-10 05:11:00,
2013-02-09 21:22:00,37.0,33.0,-100.00,NNE,27,2.0,3.0,85,-99.99,,,-99.99,,2013-02-10 05:22:00,
2013-02-09 21:31:00,37.0,33.0,-100.00,NE,45,2.0,3.0,85,-99.99,,,-99.99,,2013-02-10 05:31:00,
2013-02-09 21:41:00,38.0,33.0,-100.00,ENE,62,2.0,3.0,83,-99.99,,,-99.99,,2013-02-10 05:41:00,
2013-02-09 21:52:00,38.0,33.0,-100.00,East,79,3.0,4.0,83,-99.99,,,-99.99,,2013-02-10 05:52:00,
2013-02-09 22:01:00,38.0,34.0,-100.00,NNE,30,2.0,4.0,84,-99.99,,,-99.99,,2013-02-10 06:01:00,
2013-02-09 22:11:00,38.0,34.0,-100.00,NE,41,1.0,2.0,86,-99.99,,,-99.99,,2013-02-10 06:11:00,
2013-02-09 22:21:00,38.0,34.0,-100.00,North,0,1.0,3.0,85,-99.99,,,-99.99,,2013-02-10 06:21:00,
2013-02-09 22:32:00,38.0,34.0,-100.00,NNE,31,1.0,2.0,85,-99.99,,,-99.99,,2013-02-10 06:32:00,
2013-02-09 22:42:00,38.0,34.0,-100.00,East,81,1.0,2.0,84,-99.99,,,-99.99,,2013-02-10 06:42:00,
2013-02-09 22:51:00,37.0,33.0,-100.00,NE,45,2.0,2.0,85,-99.99,,,-99.99,,2013-02-10 06:51:00,
2013-02-09 23:01:00,37.0,33.0,-100.00,NE,41,2.0,2.0,86,-99.99,,,-99.99,,2013-02-10 07:01:00,
2013-02-09 23:11:00,37.0,34.0,-100.00,NE,35,2.0,3.0,87,-99.99,,,-99.99,,2013-02-10 07:11:00,
2013-02-09 23:21:00,37.0,34.0,-100.00,NW,319,1.0,2.0,88,-99.99,,,-99.99,,2013-02-10 07:21:00,
2013-02-09 23:31:00,36.0,33.0,-100.00,North,5,1.0,2.0,87,-99.99,,,-99.99,,2013-02-10 07:31:00,
2013-02-09 23:41:00,36.0,33.0,-100.00,NNE,13,1.0,1.0,89,-99.99,,,-99.99,,2013-02-10 07:41:00,
2013-02-09 23:51:00,34.0,31.0,-100.00,ENE,64,3.0,4.0,88,-99.99,,,-99.99,,2013-02-10 07:51:00,